Location: Boulin
(43.2500°N, 0.1333°E)
Time: 04:28:34
(UTC+00:00)

Cosmos 1933 - Pass Details

Date: 20 March 2026
Orbit: 507 x 515 km, 82.5° (Epoch: 15 April)

Event Time Altitude Azimuth Distance (km) Brightness Sun altitude
Exits shadow 03:28:49 - 139° (SE) 2,316 6.6 -27.8°
Reaches altitude 10° 03:30:50 10° 119° (ESE) 1,738 6.2 -27.5°
Maximum altitude 03:32:56 14° 86° (E) 1,485 6.2 -27.1°
Drops below altitude 10° 03:35:01 10° 53° (NE) 1,744 6.8 -26.8°
Sets 03:37:57 0° 28° (NNE) 2,636 7.6 -26.3°
